Location: Rounton
(54.4000°N, 1.3500°W)
Time: 15:05:22
(UTC+00:00)

Transit 2A - Pass Details

Date: 02 December 2021
Orbit: 591 x 967 km, 66.7° (Epoch: 21 January)

Event Time Altitude Azimuth Distance (km) Brightness Sun altitude
Rises 04:57:32 0° 291° (WNW) 3,539 - -26.0°
Reaches altitude 10° 05:00:26 10° 304° (WNW) 2,642 - -25.5°
Exits shadow 05:04:19 25° 341° (NNW) 1,831 7.7 -25.0°
Maximum altitude 05:05:38 27° 0° (N) 1,768 7.8 -24.8°
Drops below altitude 10° 05:10:58 10° 56° (ENE) 2,716 9.5 -24.0°
Sets 05:14:00 0° 69° (ENE) 3,656 10.5 -23.6°
